[[{"header":{"parameterUnit":"m.s-1","parameterCategory":1,"la1":30.2991,"la2":30.254,"lo1":-89.0895,"lo2":-89.0444,"dy":0.0017,"dx":0.0017,"nx":28,"ny":28,"refTime":"2023-10-16T03:00:00:Z","depth":0,"parameterNumber":2,"parameterNumberName":"U-component_of_WINDS"},"data":[0,0,0,0,0,0,0,0,0,0,0,0,0,0,0,0,0,0,0,0,0,0,0,0,0,0,0,0,0,0,0,0,0,0,0,0,0,0,0,0,0,0,0,0,0,0,0,0,0,0,0,0,0,0,0,0,0,0,1.348,1.348,0,1.3497,1.3498,1.3498,1.3498,1.3498,1.3498,1.3497,1.3516,1.3516,1.3517,0,0,0,0,0,0,0,0,0,0,0,0,0,1.3448,1.3449,1.348,1.348,1.348,1.3497,1.3498,1.3498,1.3498,1.3498,1.3498,1.3497,1.3515,1.3516,1.3517,0,0,0,0,0,0,0,0,0,0,0,0,0,1.3464,1.3449,1.348,1.3482,1.3483,1.3497,1.3498,1.3498,1.3498,1.3498,1.3497,1.3497,1.3515,1.3516,1.3517,1.353,0,0,1.352,1.3521,0,0,0,0,0,0,0,0,1.3463,1.3465,1.3482,1.3482,1.3483,1.3495,1.3493,1.3509,1.3498,1.3492,1.3497,1.3497,1.3509,1.3511,1.3515,1.3531,1.3532,1.352,1.3521,1.3522,1.3522,0,0,0,0,0,0,0,1.3462,1.3464,1.3487,1.3482,1.3483,1.3483,1.3485,1.3496,1.3502,1.3493,1.3493,1.3495,1.3509,1.3514,1.3515,1.3532,1.352,1.3521,1.3522,1.3522,1.3562,1.3562,0,0,0,0,0,0,1.346,1.3463,1.3486,1.3487,1.3472,1.3484,1.3486,1.3492,1.3502,1.3504,1.3495,1.3495,1.3512,1.3514,1.3516,1.3533,1.3522,1.3523,1.3523,1.3561,1.3562,1.3562,0,0,0,0,0,0,1.3459,1.3462,1.3485,1.3475,1.3478,1.3485,1.3491,1.3492,1.3496,1.3504,1.3505,1.3498,1.3512,1.3514,1.3527,1.3533,1.3523,1.3524,1.3561,1.3562,1.3562,1.3566,0,0,0,0,0,0,1.3458,1.3462,1.3466,1.3475,1.3479,1.3496,1.3491,1.3493,1.3498,1.3498,1.3507,1.3509,1.3512,1.3525,1.3528,1.3534,1.3525,1.356,1.3561,1.3562,1.3565,1.3566,1.3568,0,0,0,0,0,1.3457,1.3466,1.3466,1.3469,1.3484,1.3496,1.3498,1.3502,1.3499,1.3504,1.3509,1.3508,1.3532,1.3527,1.353,1.3536,1.356,1.3561,1.3562,1.3565,1.3566,1.3568,0,0,0,0,0,0,1.3457,1.3467,1.3468,1.348,1.3487,1.3496,1.3502,1.3503,1.3511,1.3511,1.3515,1.3517,1.353,1.3535,1.3528,1.3551,1.3546,1.3547,1.3547,1.3548,1.355,1.3548,1.3526,0,0,0,0,0,1.3459,1.3467,1.3476,1.3486,1.3489,1.3495,1.35,1.3503,1.351,1.3514,1.352,1.3528,1.3537,1.3543,1.3552,1.3566,1.3569,1.3572,1.3574,1.3575,1.3576,1.3585,1.3587,1.3566,1.3566,1.3566,0,0,1.3462,1.3468,1.3473,1.3486,1.3492,1.3501,1.3498,1.3507,1.3514,1.3515,1.3527,1.3533,1.3542,1.3555,1.3562,1.356,1.3583,1.3576,1.3577,1.3577,1.3586,1.3588,1.359,1.3566,1.3566,1.3566,0,0,1.3472,1.3477,1.3487,1.3493,1.3503,1.3507,1.3509,1.3519,1.3522,1.3535,1.3536,1.3545,1.356,1.3567,1.3573,1.3588,1.3588,1.3591,1.3597,1.3606,1.3608,1.3609,1.3615,1.3617,1.3592,1.3592,1.3592,0,1.3474,1.3488,1.3492,1.3502,1.3508,1.3509,1.3519,1.3525,1.3537,1.3542,1.3539,1.356,1.3566,1.3583,1.3586,1.3591,1.3594,1.3589,1.3607,1.3609,1.361,1.3616,1.3618,1.3592,1.3592,1.3592,1.3592,0,1.3491,1.35,1.3507,1.3519,1.3526,1.3536,1.3542,1.3548,1.3551,1.3555,1.3569,1.3577,1.3588,1.3592,1.3594,1.3609,1.3608,1.3606,1.3602,1.3613,1.3618,1.362,1.3593,1.3593,1.3593,1.3593,0,0,1.35,1.3515,1.3518,1.3524,1.3535,1.3543,1.3554,1.3565,1.3571,1.3579,1.3589,1.3603,1.3603,1.3609,1.3612,1.362,1.3632,1.3617,1.3618,1.362,1.3651,1.3652,1.3654,1.3633,1.3633,1.3634,1.365,0,1.3512,1.3531,1.3535,1.3552,1.3561,1.3564,1.3573,1.3582,1.3587,1.3596,1.3602,1.3613,1.361,1.3615,1.3623,1.3629,1.3639,1.3628,1.3642,1.3643,1.364,1.3657,1.3658,1.3673,1.3652,1.3653,1.3653,0,1.3528,1.3537,1.3555,1.3566,1.357,1.3579,1.359,1.3599,1.3609,1.3612,1.3621,1.3623,1.3636,1.3631,1.3648,1.3641,1.3648,1.3652,1.3653,1.3654,1.3648,1.3659,1.3678,1.368,1.3656,1.3656,1.3656,0,1.3534,1.3551,1.3564,1.3569,1.3582,1.3588,1.3594,1.3604,1.3611,1.3622,1.3626,1.3638,1.3644,1.3654,1.366,1.3656,1.3678,1.3673,1.3681,1.3681,1.3685,1.3685,1.3705,1.3689,1.3689,1.3689,1.3689,0,1.3546,1.3557,1.3567,1.3575,1.3587,1.3593,1.3605,1.3612,1.3621,1.3631,1.3634,1.3643,1.3651,1.3661,1.3666,1.3681,1.3683,1.3687,1.3688,1.3687,1.3687,1.3691,1.369,1.369,1.369,1.369,1.369,0,1.3555,1.3562,1.3576,1.3588,1.3591,1.36,1.3611,1.3619,1.3625,1.3638,1.3641,1.3651,1.3663,1.3671,1.3687,1.369,1.3707,1.3707,1.3703,1.3704,1.3712,1.3711,1.3736,1.374,1.3721,1.3721,1.3721,0,1.3562,1.3571,1.3584,1.3591,1.3597,1.3608,1.3615,1.3622,1.363,1.3643,1.365,1.3663,1.3674,1.3695,1.3703,1.3716,1.3717,1.3725,1.3719,1.3718,1.3718,1.3718,1.3719,1.3726,1.3726,1.3726,1.3727,0,1.3575,1.3579,1.3589,1.3601,1.361,1.362,1.363,1.3635,1.3644,1.3653,1.3666,1.3675,1.3692,1.3705,1.3719,1.3726,1.3728,1.3729,1.3731,1.373,1.3727,1.373,1.3706,1.3728,1.3728,1.3728,1.3727,1.3727,1.3584,1.3592,1.3603,1.3615,1.3623,1.3633,1.3641,1.3649,1.366,1.3674,1.3678,1.3692,1.3704,1.3723,1.3731,1.3742,1.3741,1.3745,1.3746,1.3747,1.3747,1.3726,1.3745,1.3745,1.3745,1.3745,1.3745,0,1.3597,1.3605,1.3616,1.363,1.364,1.3641,1.3653,1.3661,1.3673,1.3684,1.3695,1.3711,1.3725,1.3735,1.3749,1.3757,1.3758,1.376,1.376,1.3762,1.3747,1.3744,1.3759,1.3759,1.3759,1.3759,1.3759,1.3759,1.3605,1.3619,1.3624,1.3643,1.3651,1.3665,1.3672,1.3681,1.369,1.3707,1.3719,1.3726,1.3737,1.3752,1.3765,1.3768,1.3773,1.3775,1.3778,1.3764,1.3763,1.3761,1.3758,1.3776,1.3776,1.3791,1.3792,1.3792]},{"header":{"parameterUnit":"m.s-1","parameterCategory":1,"la1":30.2991,"la2":30.254,"lo1":-89.0895,"lo2":-89.0444,"dy":0.0017,"dx":0.0017,"nx":28,"ny":28,"refTime":"2023-10-16T03:00:00:Z","depth":0,"parameterNumber":3,"parameterNumberName":"V-component_of_WINDS"},"data":[0,0,0,0,0,0,0,0,0,0,0,0,0,0,0,0,0,0,0,0,0,0,0,0,0,0,0,0,0,0,0,0,0,0,0,0,0,0,0,0,0,0,0,0,0,0,0,0,0,0,0,0,0,0,0,0,0,0,-6.0772,-6.0773,0,-6.0811,-6.0811,-6.0812,-6.0782,-6.0781,-6.0779,-6.0778,-6.0814,-6.0816,-6.0818,0,0,0,0,0,0,0,0,0,0,0,0,0,-6.067,-6.0672,-6.0772,-6.0773,-6.0773,-6.0811,-6.0811,-6.0812,-6.0782,-6.0781,-6.0779,-6.0778,-6.0813,-6.0816,-6.0818,0,0,0,0,0,0,0,0,0,0,0,0,0,-6.0712,-6.0672,-6.0772,-6.0763,-6.0763,-6.0811,-6.0811,-6.0812,-6.0783,-6.0781,-6.0779,-6.0777,-6.0812,-6.0815,-6.0818,-6.0876,0,0,-6.0828,-6.083,0,0,0,0,0,0,0,0,-6.0709,-6.0716,-6.0764,-6.0764,-6.0763,-6.079,-6.0788,-6.0833,-6.0783,-6.0775,-6.0778,-6.0776,-6.0807,-6.0811,-6.0822,-6.0878,-6.088,-6.0829,-6.083,-6.0832,-6.0833,0,0,0,0,0,0,0,-6.0707,-6.0714,-6.0787,-6.0765,-6.0764,-6.0756,-6.076,-6.0797,-6.0801,-6.0775,-6.0773,-6.0779,-6.0806,-6.0819,-6.0822,-6.088,-6.0828,-6.0831,-6.0833,-6.0834,-6.0988,-6.099,0,0,0,0,0,0,-6.0705,-6.0712,-6.0786,-6.0788,-6.0731,-6.0759,-6.0764,-6.0783,-6.0801,-6.0801,-6.078,-6.0777,-6.0814,-6.0819,-6.0824,-6.0894,-6.0832,-6.0835,-6.0837,-6.0986,-6.0988,-6.0991,0,0,0,0,0,0,-6.0703,-6.0712,-6.0785,-6.075,-6.0758,-6.0763,-6.0785,-6.0785,-6.0797,-6.0804,-6.0804,-6.0792,-6.0813,-6.0819,-6.0864,-6.0895,-6.0836,-6.0839,-6.0983,-6.0986,-6.0989,-6.1034,0,0,0,0,0,0,-6.07,-6.0711,-6.0734,-6.075,-6.076,-6.0825,-6.0787,-6.0787,-6.0803,-6.08,-6.0816,-6.0816,-6.0812,-6.086,-6.0867,-6.0898,-6.0842,-6.098,-6.0985,-6.0988,-6.103,-6.1039,-6.1046,0,0,0,0,0,-6.0697,-6.0744,-6.0735,-6.0744,-6.0789,-6.0827,-6.0833,-6.0828,-6.0806,-6.0828,-6.0833,-6.0816,-6.089,-6.0865,-6.0873,-6.0905,-6.0978,-6.0983,-6.0988,-6.1027,-6.1037,-6.1046,0,0,0,0,0,0,-6.0728,-6.0745,-6.0736,-6.079,-6.0808,-6.0822,-6.085,-6.0839,-6.0862,-6.0857,-6.0849,-6.0853,-6.0901,-6.0907,-6.0878,-6.0963,-6.0931,-6.0937,-6.0957,-6.0967,-6.0975,-6.0972,-6.0844,0,0,0,0,0,-6.0742,-6.0773,-6.0786,-6.0832,-6.0842,-6.0845,-6.0861,-6.0857,-6.0874,-6.088,-6.0888,-6.0905,-6.0932,-6.095,-6.0975,-6.1031,-6.1035,-6.1057,-6.1065,-6.1072,-6.1078,-6.111,-6.112,-6.1007,-6.1006,-6.1006,0,0,-6.077,-6.0783,-6.0803,-6.0839,-6.0852,-6.0884,-6.0851,-6.0885,-6.0909,-6.0885,-6.0929,-6.0936,-6.0953,-6.1005,-6.1028,-6.1012,-6.111,-6.1078,-6.1083,-6.1086,-6.1116,-6.1126,-6.1136,-6.101,-6.1009,-6.1009,0,0,-6.0837,-6.085,-6.0891,-6.0906,-6.0927,-6.0929,-6.0939,-6.0955,-6.096,-6.1004,-6.0987,-6.1015,-6.1061,-6.1075,-6.1088,-6.1164,-6.1149,-6.1172,-6.1213,-6.1245,-6.1253,-6.1261,-6.1289,-6.1299,-6.1178,-6.1178,-6.1178,0,-6.0868,-6.0917,-6.0913,-6.095,-6.0967,-6.0949,-6.0991,-6.1004,-6.1032,-6.1043,-6.1025,-6.1085,-6.1096,-6.1151,-6.117,-6.1181,-6.1192,-6.117,-6.1253,-6.1261,-6.1268,-6.1294,-6.1305,-6.1181,-6.118,-6.118,-6.118,0,-6.0955,-6.0989,-6.102,-6.105,-6.107,-6.1108,-6.111,-6.1131,-6.1125,-6.1129,-6.1175,-6.1187,-6.1216,-6.1228,-6.1221,-6.1283,-6.1273,-6.1254,-6.1221,-6.1282,-6.1306,-6.1316,-6.1185,-6.1184,-6.1183,-6.1182,0,0,-6.1042,-6.1071,-6.1083,-6.1097,-6.112,-6.1146,-6.1184,-6.1214,-6.1232,-6.1252,-6.1284,-6.1325,-6.1309,-6.1324,-6.1319,-6.1346,-6.1407,-6.1324,-6.1324,-6.134,-6.1477,-6.1491,-6.1503,-6.1397,-6.1399,-6.1401,-6.1476,0,-6.1111,-6.118,-6.1179,-6.1242,-6.1274,-6.1259,-6.1292,-6.131,-6.1315,-6.1342,-6.1347,-6.1377,-6.1352,-6.1362,-6.1388,-6.1394,-6.1434,-6.1388,-6.1427,-6.1428,-6.1423,-6.1516,-6.1531,-6.1601,-6.1485,-6.1487,-6.1488,0,-6.1201,-6.1227,-6.1294,-6.1315,-6.1328,-6.1358,-6.1387,-6.1413,-6.1433,-6.1434,-6.1453,-6.1444,-6.1483,-6.145,-6.1503,-6.1472,-6.1488,-6.1493,-6.1496,-6.1499,-6.1462,-6.1522,-6.1623,-6.1634,-6.1503,-6.1502,-6.1501,0,-6.1259,-6.131,-6.1358,-6.137,-6.1395,-6.1417,-6.1428,-6.1446,-6.1465,-6.1489,-6.1501,-6.1529,-6.1544,-6.1566,-6.1565,-6.154,-6.1619,-6.1585,-6.1622,-6.1622,-6.1639,-6.1638,-6.1744,-6.1648,-6.1648,-6.1648,-6.1648,0,-6.1336,-6.1378,-6.1385,-6.1414,-6.1461,-6.1459,-6.1505,-6.1514,-6.153,-6.1561,-6.1548,-6.1577,-6.1574,-6.1602,-6.1601,-6.1646,-6.1653,-6.1655,-6.1655,-6.1657,-6.1657,-6.1667,-6.1662,-6.1651,-6.165,-6.1649,-6.1649,0,-6.1409,-6.1415,-6.1466,-6.1486,-6.1492,-6.1526,-6.1543,-6.1571,-6.1576,-6.1614,-6.1623,-6.1631,-6.1664,-6.1665,-6.1703,-6.1702,-6.1758,-6.1751,-6.1752,-6.1751,-6.1787,-6.1784,-6.1904,-6.192,-6.1813,-6.1814,-6.1815,0,-6.1458,-6.1491,-6.1516,-6.1536,-6.155,-6.1582,-6.1602,-6.1602,-6.1623,-6.1649,-6.1674,-6.1706,-6.1732,-6.1786,-6.1794,-6.1823,-6.1818,-6.1858,-6.1822,-6.1824,-6.1819,-6.1818,-6.1821,-6.1865,-6.1866,-6.1867,-6.1868,0,-6.1546,-6.1548,-6.1578,-6.161,-6.1634,-6.1659,-6.1681,-6.1698,-6.1701,-6.1725,-6.176,-6.1781,-6.1821,-6.1853,-6.1882,-6.1892,-6.1881,-6.1879,-6.1889,-6.1892,-6.1891,-6.1893,-6.1771,-6.1876,-6.1875,-6.1875,-6.1874,-6.1874,-6.1609,-6.1638,-6.1661,-6.1695,-6.1713,-6.1735,-6.1763,-6.1772,-6.1802,-6.1836,-6.1834,-6.1873,-6.1893,-6.1931,-6.1944,-6.1974,-6.196,-6.1974,-6.1978,-6.1982,-6.1986,-6.1887,-6.1979,-6.1979,-6.1978,-6.1978,-6.1978,0,-6.1696,-6.1711,-6.1743,-6.1777,-6.1804,-6.1793,-6.1818,-6.1841,-6.1876,-6.1897,-6.1924,-6.1965,-6.1997,-6.2009,-6.204,-6.2062,-6.2058,-6.207,-6.2069,-6.2072,-6.1996,-6.1985,-6.2073,-6.2073,-6.2073,-6.2073,-6.2073,-6.2073,-6.1745,-6.1795,-6.18,-6.1858,-6.1871,-6.1912,-6.1927,-6.1947,-6.1964,-6.2012,-6.2039,-6.2047,-6.2064,-6.2097,-6.2126,-6.2129,-6.2141,-6.2156,-6.2157,-6.2086,-6.2077,-6.2067,-6.2057,-6.2159,-6.2159,-6.2229,-6.223,-6.223]}]]